Location: Zagreb
(45.8000°N, 16.0000°E)
Time: 20:50:47
(UTC+01:00)

deb Explorer IX - Pass Details

Date: 10 October 2020
Orbit: 537 x 1106 km, 38.8° (Epoch: 30 October)

Event Time Altitude Azimuth Distance (km) Brightness Sun altitude
Rises 12:27:06 0° 209° (SSW) 3,869 ? 37.2°
Reaches altitude 10° 12:30:44 10° 194° (SSW) 2,861 ? 37.2°
Maximum altitude 12:35:25 19° 151° (SSE) 2,154 ? 37.3°
Drops below altitude 10° 12:39:48 10° 108° (ESE) 2,641 ? 37.3°
Sets 12:42:59 0° 91° (E) 3,480 ? 37.3°
